Tracking 25711 objects as of 22-May-2022
HD Live streaming from Space Station
objects crossing your sky now

CANX-6

Track CANX-6 now!
10-day predictions
CANX-6 is classified as:


NORAD ID: 32784
Int'l Code: 2008-021B
Perigee: 602.3 km
Apogee: 621.5 km
Inclination: 97.7 °
Period: 96.8 minutes
Semi major axis: 6982 km
RCS: 0.1943 m2 (medium)
Launch date: April 28, 2008
Source: Canada (CA)
Launch site: SRIHARIKOTA (SRI)

CanX 6 is a 14-pound [6-kg] Canadian spacecraft designed to track ships using maritime navigation signals transmitted from sea vessels.
aabbcc
Your satellite tracking list
Your tracking list is empty




NASA's NSSDC Master Catalog

Two Line Element Set (TLE):
1 32784U 08021B   22141.62792401  .00002809  00000-0  31281-3 0  9993
2 32784  97.6896 110.4683 0013705 355.9096   4.2006 14.87820478761945
Source of the keplerian elements: AFSPC